Tracking 20623 objects as of 4-Apr-2020
HD Live streaming from Space Station
objects crossing your sky now

DUCHIFAT-3

Track DUCHIFAT-3 now!
10-day predictions
DUCHIFAT-3 is classified as:


NORAD ID: 44854
Int'l Code: 2019-089C
Perigee: 572.2 km
Apogee: 582.0 km
Inclination: 37.0 °
Period: 96.1 minutes
Semi major axis: 6948 km
RCS: Unknown
Launch date: December 11, 2019
Source: (TBD)
Launch site: SRIHARIKOTA (SRI)

Uplink (MHz): 145.970
Downlink (MHz): 436.400
Beacon (MHz):
Mode: FM/APRS/9k6BPSK
Call sign: 4H4HSL-1
Status: Active

aabbcc
Your satellite tracking list
Your tracking list is empty




NASA's NSSDC Master Catalog

Two Line Element Set (TLE):
1 44854U 19089C   20094.62571833  .00000443  00000-0  42279-4 0  9991
2 44854  36.9662 180.5503 0007005 183.0122 177.0591 14.99011904 17062
Source of the keplerian elements: AFSPC